Time,TemperatureF,DewpointF,PressureIn,WindDirection,WindDirectionDegrees,WindSpeedMPH,WindSpeedGustMPH,Humidity,HourlyPrecipIn,Conditions,Clouds,dailyrainin,SoftwareType,DateUTC
2013-02-10 00:00:00,26.0,16.0,-100.00,NE,54,7.0,16.0,66,0.00,,,0.00,,2013-02-10 05:00:00,
2013-02-10 00:32:00,26.0,16.0,-100.00,NE,54,7.0,16.0,66,0.00,,,0.00,,2013-02-10 05:32:00,
2013-02-10 00:42:00,26.0,16.0,-100.00,NE,54,7.0,16.0,66,0.00,,,0.00,,2013-02-10 05:42:00,
2013-02-10 00:52:00,26.0,16.0,-100.00,NE,54,7.0,16.0,66,0.00,,,0.00,,2013-02-10 05:52:00,
2013-02-10 01:00:00,28.0,17.0,-100.00,ENE,65,10.0,21.0,64,0.00,,,0.00,,2013-02-10 06:00:00,
2013-02-10 01:32:00,28.0,17.0,-100.00,ENE,65,10.0,21.0,64,0.00,,,0.00,,2013-02-10 06:32:00,
2013-02-10 01:42:00,28.0,17.0,-100.00,ENE,65,10.0,21.0,64,0.00,,,0.00,,2013-02-10 06:42:00,
2013-02-10 01:52:00,28.0,17.0,-100.00,ENE,65,10.0,21.0,64,0.00,,,0.00,,2013-02-10 06:52:00,
2013-02-10 02:00:00,29.0,18.0,-100.00,ENE,72,10.0,20.0,64,-99.99,,,0.00,,2013-02-10 07:00:00,
2013-02-10 02:32:00,29.0,18.0,-100.00,ENE,72,10.0,20.0,64,-99.99,,,0.00,,2013-02-10 07:32:00,
2013-02-10 02:42:00,29.0,18.0,-100.00,ENE,72,10.0,20.0,64,-99.99,,,0.00,,2013-02-10 07:42:00,
2013-02-10 02:52:00,29.0,18.0,-100.00,ENE,72,10.0,20.0,64,-99.99,,,0.00,,2013-02-10 07:52:00,
2013-02-10 03:00:00,28.0,18.0,-100.00,ENE,75,11.0,19.0,65,0.00,,,0.00,,2013-02-10 08:00:00,
2013-02-10 03:32:00,28.0,18.0,-100.00,ENE,75,11.0,19.0,65,0.00,,,0.00,,2013-02-10 08:32:00,
2013-02-10 03:43:00,28.0,18.0,-100.00,ENE,75,11.0,19.0,65,0.00,,,0.00,,2013-02-10 08:43:00,
2013-02-10 03:52:00,28.0,18.0,-100.00,ENE,75,11.0,19.0,65,0.00,,,0.00,,2013-02-10 08:52:00,
2013-02-10 04:00:00,28.0,18.0,-100.00,ENE,68,11.0,18.0,66,0.00,,,0.00,,2013-02-10 09:00:00,
2013-02-10 04:32:00,28.0,18.0,-100.00,ENE,68,11.0,18.0,66,0.00,,,0.00,,2013-02-10 09:32:00,
2013-02-10 04:42:00,28.0,18.0,-100.00,ENE,68,11.0,18.0,66,0.00,,,0.00,,2013-02-10 09:42:00,
2013-02-10 04:52:00,28.0,18.0,-100.00,ENE,68,11.0,18.0,66,0.00,,,0.00,,2013-02-10 09:52:00,
2013-02-10 05:00:00,29.0,19.0,-100.00,ENE,66,10.0,18.0,66,0.00,,,0.00,,2013-02-10 10:00:00,
2013-02-10 05:32:00,29.0,19.0,-100.00,ENE,66,10.0,18.0,66,0.00,,,0.00,,2013-02-10 10:32:00,
2013-02-10 05:42:00,29.0,19.0,-100.00,ENE,66,10.0,18.0,66,0.00,,,0.00,,2013-02-10 10:42:00,
2013-02-10 05:52:00,29.0,19.0,-100.00,ENE,66,10.0,18.0,66,0.00,,,0.00,,2013-02-10 10:52:00,
2013-02-10 06:00:00,28.0,19.0,-100.00,ENE,63,8.0,16.0,69,0.00,,,0.00,,2013-02-10 11:00:00,
2013-02-10 06:32:00,28.0,19.0,-100.00,ENE,63,8.0,16.0,69,0.00,,,0.00,,2013-02-10 11:32:00,
2013-02-10 06:42:00,28.0,19.0,-100.00,ENE,63,8.0,16.0,69,0.00,,,0.00,,2013-02-10 11:42:00,
2013-02-10 06:52:00,28.0,19.0,-100.00,ENE,63,8.0,16.0,69,0.00,,,0.00,,2013-02-10 11:52:00,
2013-02-10 07:00:00,28.0,20.0,-100.00,ENE,60,8.0,16.0,72,0.00,,,0.00,,2013-02-10 12:00:00,
2013-02-10 07:32:00,28.0,20.0,-100.00,ENE,60,8.0,16.0,72,0.00,,,0.00,,2013-02-10 12:32:00,
2013-02-10 07:42:00,28.0,20.0,-100.00,ENE,60,8.0,16.0,72,0.00,,,0.00,,2013-02-10 12:42:00,
2013-02-10 07:52:00,28.0,20.0,-100.00,ENE,60,8.0,16.0,72,0.00,,,0.00,,2013-02-10 12:52:00,
2013-02-10 08:00:00,26.0,19.0,-100.00,NE,49,7.0,15.0,75,0.00,,,0.00,,2013-02-10 13:00:00,
2013-02-10 08:32:00,26.0,19.0,-100.00,NE,49,7.0,15.0,75,0.00,,,0.00,,2013-02-10 13:32:00,
2013-02-10 08:42:00,26.0,19.0,-100.00,NE,49,7.0,15.0,75,0.00,,,0.00,,2013-02-10 13:42:00,
2013-02-10 08:52:00,26.0,19.0,-100.00,NE,49,7.0,15.0,75,0.00,,,0.00,,2013-02-10 13:52:00,
2013-02-10 09:00:00,27.0,20.0,-100.00,NE,43,8.0,15.0,73,0.00,,,0.00,,2013-02-10 14:00:00,
2013-02-10 09:32:00,27.0,20.0,-100.00,NE,43,8.0,15.0,73,0.00,,,0.00,,2013-02-10 14:32:00,
2013-02-10 09:42:00,27.0,20.0,-100.00,NE,43,8.0,15.0,73,0.00,,,0.00,,2013-02-10 14:42:00,
2013-02-10 09:52:00,27.0,20.0,-100.00,NE,43,8.0,15.0,73,0.00,,,0.00,,2013-02-10 14:52:00,
2013-02-10 10:00:00,29.0,20.0,-100.00,NE,42,7.0,14.0,70,0.00,,,0.00,,2013-02-10 15:00:00,
2013-02-10 10:32:00,29.0,20.0,-100.00,NE,42,7.0,14.0,70,0.00,,,0.00,,2013-02-10 15:32:00,
2013-02-10 10:42:00,29.0,20.0,-100.00,NE,42,7.0,14.0,70,0.00,,,0.00,,2013-02-10 15:42:00,
2013-02-10 10:52:00,29.0,20.0,-100.00,NE,42,7.0,14.0,70,0.00,,,0.00,,2013-02-10 15:52:00,
2013-02-10 11:00:00,29.0,20.0,-100.00,NE,45,7.0,14.0,69,0.00,,,0.00,,2013-02-10 16:00:00,
2013-02-10 11:32:00,29.0,20.0,-100.00,NE,45,7.0,14.0,69,0.00,,,0.00,,2013-02-10 16:32:00,
2013-02-10 11:42:00,29.0,20.0,-100.00,NE,45,7.0,14.0,69,0.00,,,0.00,,2013-02-10 16:42:00,
2013-02-10 11:52:00,29.0,20.0,-100.00,NE,45,7.0,14.0,69,0.00,,,0.00,,2013-02-10 16:52:00,
2013-02-10 12:00:00,29.0,20.0,-100.00,NE,50,7.0,13.0,68,0.00,,,0.00,,2013-02-10 17:00:00,
2013-02-10 12:32:00,29.0,20.0,-100.00,NE,50,7.0,13.0,68,0.00,,,0.00,,2013-02-10 17:32:00,
2013-02-10 12:42:00,29.0,20.0,-100.00,NE,50,7.0,13.0,68,0.00,,,0.00,,2013-02-10 17:42:00,
2013-02-10 12:52:00,29.0,20.0,-100.00,NE,50,7.0,13.0,68,0.00,,,0.00,,2013-02-10 17:52:00,
2013-02-10 13:00:00,30.0,21.0,-100.00,NE,47,6.0,13.0,68,0.00,,,0.00,,2013-02-10 18:00:00,
2013-02-10 13:32:00,30.0,21.0,-100.00,NE,47,6.0,13.0,68,0.00,,,0.00,,2013-02-10 18:32:00,
2013-02-10 13:42:00,30.0,21.0,-100.00,NE,47,6.0,13.0,68,0.00,,,0.00,,2013-02-10 18:42:00,
2013-02-10 13:52:00,30.0,21.0,-100.00,NE,47,6.0,13.0,68,0.00,,,0.00,,2013-02-10 18:52:00,
2013-02-10 14:00:00,30.0,21.0,-100.00,ENE,61,6.0,12.0,69,-99.99,,,0.00,,2013-02-10 19:00:00,
2013-02-10 14:32:00,30.0,21.0,-100.00,ENE,61,6.0,12.0,69,-99.99,,,0.00,,2013-02-10 19:32:00,
2013-02-10 14:43:00,30.0,21.0,-100.00,ENE,61,6.0,12.0,69,-99.99,,,0.00,,2013-02-10 19:43:00,
2013-02-10 14:52:00,30.0,21.0,-100.00,ENE,61,6.0,12.0,69,-99.99,,,0.00,,2013-02-10 19:52:00,
2013-02-10 15:00:00,31.0,21.0,-100.00,NE,43,6.0,11.0,67,0.00,,,0.00,,2013-02-10 20:00:00,
2013-02-10 15:32:00,31.0,21.0,-100.00,NE,43,6.0,11.0,67,0.00,,,0.00,,2013-02-10 20:32:00,
2013-02-10 15:42:00,31.0,21.0,-100.00,NE,43,6.0,11.0,67,0.00,,,0.00,,2013-02-10 20:42:00,
2013-02-10 15:52:00,31.0,21.0,-100.00,NE,43,6.0,11.0,67,0.00,,,0.00,,2013-02-10 20:52:00,
2013-02-10 16:00:00,32.0,22.0,-100.00,ENE,67,6.0,11.0,65,0.00,,,0.00,,2013-02-10 21:00:00,
2013-02-10 16:32:00,32.0,22.0,-100.00,ENE,67,6.0,11.0,65,0.00,,,0.00,,2013-02-10 21:32:00,
2013-02-10 16:42:00,32.0,22.0,-100.00,ENE,67,6.0,11.0,65,0.00,,,0.00,,2013-02-10 21:42:00,
2013-02-10 16:52:00,32.0,22.0,-100.00,ENE,67,6.0,11.0,65,0.00,,,0.00,,2013-02-10 21:52:00,
2013-02-10 17:00:00,33.0,22.0,-100.00,ENE,73,6.0,11.0,63,0.00,,,0.00,,2013-02-10 22:00:00,
2013-02-10 17:32:00,33.0,22.0,-100.00,ENE,73,6.0,11.0,63,0.00,,,0.00,,2013-02-10 22:32:00,
2013-02-10 17:42:00,33.0,22.0,-100.00,ENE,73,6.0,11.0,63,0.00,,,0.00,,2013-02-10 22:42:00,
2013-02-10 17:52:00,33.0,22.0,-100.00,ENE,73,6.0,11.0,63,0.00,,,0.00,,2013-02-10 22:52:00,
2013-02-10 18:00:00,32.0,22.0,-100.00,ENE,78,7.0,13.0,67,-99.99,,,0.00,,2013-02-10 23:00:00,
2013-02-10 18:32:00,32.0,22.0,-100.00,ENE,78,7.0,13.0,67,-99.99,,,0.00,,2013-02-10 23:32:00,
2013-02-10 18:42:00,32.0,22.0,-100.00,ENE,78,7.0,13.0,67,-99.99,,,0.00,,2013-02-10 23:42:00,
2013-02-10 18:52:00,32.0,22.0,-100.00,ENE,78,7.0,13.0,67,-99.99,,,0.00,,2013-02-10 23:52:00,
2013-02-10 19:00:00,31.0,23.0,-100.00,East,92,6.0,13.0,72,-99.99,,,0.00,,2013-02-11 00:00:00,
2013-02-10 19:32:00,31.0,23.0,-100.00,East,92,6.0,13.0,72,-99.99,,,0.00,,2013-02-11 00:32:00,
2013-02-10 19:42:00,31.0,23.0,-100.00,East,92,6.0,13.0,72,-99.99,,,0.00,,2013-02-11 00:42:00,
2013-02-10 19:52:00,31.0,23.0,-100.00,East,92,6.0,13.0,72,-99.99,,,0.00,,2013-02-11 00:52:00,
2013-02-10 20:00:00,28.0,21.0,-100.00,ESE,117,5.0,13.0,76,-99.99,,,0.00,,2013-02-11 01:00:00,
2013-02-10 20:32:00,28.0,21.0,-100.00,ESE,117,5.0,13.0,76,-99.99,,,0.00,,2013-02-11 01:32:00,
2013-02-10 20:42:00,28.0,21.0,-100.00,ESE,117,5.0,13.0,76,-99.99,,,0.00,,2013-02-11 01:42:00,
2013-02-10 20:52:00,28.0,21.0,-100.00,ESE,117,5.0,13.0,76,-99.99,,,0.00,,2013-02-11 01:52:00,
2013-02-10 21:00:00,13.0,9.0,-100.00,WNW,284,8.0,13.0,84,-99.99,,,0.00,,2013-02-11 02:00:00,
2013-02-10 21:32:00,13.0,9.0,-100.00,WNW,284,8.0,13.0,84,-99.99,,,0.00,,2013-02-11 02:32:00,
2013-02-10 21:42:00,13.0,9.0,-100.00,WNW,284,8.0,13.0,84,-99.99,,,0.00,,2013-02-11 02:42:00,
2013-02-10 21:52:00,13.0,9.0,-100.00,WNW,284,8.0,13.0,84,-99.99,,,0.00,,2013-02-11 02:52:00,
2013-02-10 22:00:00,10.0,6.0,-100.00,WNW,284,10.0,17.0,85,0.00,,,0.00,,2013-02-11 03:00:00,
2013-02-10 22:32:00,10.0,6.0,-100.00,WNW,284,10.0,17.0,85,0.00,,,0.00,,2013-02-11 03:32:00,
2013-02-10 22:42:00,10.0,6.0,-100.00,WNW,284,10.0,17.0,85,0.00,,,0.00,,2013-02-11 03:42:00,
2013-02-10 22:52:00,10.0,6.0,-100.00,WNW,284,10.0,17.0,85,0.00,,,0.00,,2013-02-11 03:52:00,
2013-02-10 23:00:00,13.0,10.0,-100.00,West,265,8.0,18.0,86,0.00,,,0.00,,2013-02-11 04:00:00,
2013-02-10 23:32:00,13.0,10.0,-100.00,West,265,8.0,18.0,86,0.00,,,0.00,,2013-02-11 04:32:00,
2013-02-10 23:42:00,13.0,10.0,-100.00,West,265,8.0,18.0,86,0.00,,,0.00,,2013-02-11 04:42:00,
2013-02-10 23:52:00,13.0,10.0,-100.00,West,265,8.0,18.0,86,0.00,,,0.00,,2013-02-11 04:52:00,